Time,TemperatureF,DewpointF,PressureIn,WindDirection,WindDirectionDegrees,WindSpeedMPH,WindSpeedGustMPH,Humidity,HourlyPrecipIn,Conditions,Clouds,dailyrainin,SoftwareType,DateUTC
2013-04-03 00:00:00,49.3,48.7,29.74,North,4,0.0,0.0,98,0.00,,OVC004,0.00,VWS V14.01,2013-04-03 07:00:00,
2013-04-03 00:10:00,49.3,48.7,29.74,SSW,210,0.0,3.1,98,0.00,,OVC004,0.00,VWS V14.01,2013-04-03 07:10:00,
2013-04-03 00:20:00,49.6,49.1,29.74,SSW,210,0.0,0.0,98,0.00,,OVC004,0.00,VWS V14.01,2013-04-03 07:20:00,
2013-04-03 00:30:00,49.3,49.0,29.74,SSW,209,0.0,0.0,99,0.00,,OVC004,0.00,VWS V14.01,2013-04-03 07:30:00,
2013-04-03 00:40:00,49.3,49.0,29.74,SSW,209,0.0,0.0,99,0.00,,OVC004,0.00,VWS V14.01,2013-04-03 07:40:00,
2013-04-03 00:50:00,49.3,49.0,29.74,SSW,209,0.0,0.0,99,0.00,,OVC004,0.00,VWS V14.01,2013-04-03 07:50:00,
2013-04-03 01:00:00,49.3,49.0,29.74,SSW,205,0.0,0.0,99,0.00,,OVC004,0.00,VWS V14.01,2013-04-03 08:00:00,
2013-04-03 01:10:00,49.5,49.5,29.74,SSW,205,0.0,0.0,100,0.00,,OVC004,0.00,VWS V14.01,2013-04-03 08:10:00,
2013-04-03 01:20:00,49.6,49.6,29.74,SSW,205,0.0,0.0,100,0.00,,OVC004,0.00,VWS V14.01,2013-04-03 08:20:00,
2013-04-03 01:30:00,49.3,49.3,29.74,SSW,205,0.0,0.0,100,0.00,,OVC004,0.00,VWS V14.01,2013-04-03 08:30:00,
2013-04-03 01:40:00,49.3,49.3,29.74,SSW,205,0.0,0.0,100,0.00,,OVC004,0.00,VWS V14.01,2013-04-03 08:40:00,
2013-04-03 01:50:00,49.1,49.1,29.74,SW,231,0.0,3.6,100,0.00,,,0.00,VWS V14.01,2013-04-03 08:50:00,
2013-04-03 02:00:00,49.3,49.3,29.74,SW,230,0.0,0.0,100,0.00,,,0.00,VWS V14.01,2013-04-03 09:00:00,
2013-04-03 02:10:00,48.9,48.9,29.74,SW,216,0.0,0.0,100,0.00,,,0.00,VWS V14.01,2013-04-03 09:10:00,
2013-04-03 02:20:00,48.7,48.7,29.71,SW,222,0.0,0.0,100,0.00,,,0.00,VWS V14.01,2013-04-03 09:20:00,
2013-04-03 02:30:00,48.7,48.7,29.71,SW,218,0.0,0.0,100,0.00,,,0.00,VWS V14.01,2013-04-03 09:30:00,
2013-04-03 02:40:00,48.9,48.9,29.71,SW,218,0.0,0.0,100,0.00,,,0.00,VWS V14.01,2013-04-03 09:40:00,
2013-04-03 02:50:00,48.7,48.7,29.71,SW,218,0.0,0.0,100,0.00,,OVC002,0.00,VWS V14.01,2013-04-03 09:50:00,
2013-04-03 03:00:00,48.7,48.7,29.71,SW,221,0.0,0.0,100,0.00,,,0.00,VWS V14.01,2013-04-03 10:00:00,
2013-04-03 03:10:00,48.6,48.6,29.71,SW,221,0.0,0.0,100,0.00,,,0.00,VWS V14.01,2013-04-03 10:10:00,
2013-04-03 03:20:00,48.6,48.6,29.71,SW,221,0.0,0.0,100,0.00,,,0.00,VWS V14.01,2013-04-03 10:20:00,
2013-04-03 03:30:00,48.6,48.6,29.71,SW,221,0.0,0.0,100,0.00,,,0.00,VWS V14.01,2013-04-03 10:30:00,
2013-04-03 03:40:00,48.4,48.4,29.71,SW,221,0.0,0.0,100,0.00,,,0.00,VWS V14.01,2013-04-03 10:40:00,
2013-04-03 03:50:00,48.4,48.4,29.71,SW,221,0.0,0.0,100,0.00,,,0.00,VWS V14.01,2013-04-03 10:50:00,
2013-04-03 04:00:00,48.2,48.2,29.71,SSW,211,0.0,0.0,100,0.00,,,0.00,VWS V14.01,2013-04-03 11:00:00,
2013-04-03 04:10:00,47.8,47.8,29.71,SSW,207,0.0,0.0,100,0.00,,,0.00,VWS V14.01,2013-04-03 11:10:00,
2013-04-03 04:20:00,47.7,47.7,29.71,SSW,207,0.0,0.0,100,0.00,,,0.00,VWS V14.01,2013-04-03 11:20:00,
2013-04-03 04:30:00,47.8,47.8,29.71,SSW,207,0.0,0.0,100,0.00,,,0.00,VWS V14.01,2013-04-03 11:30:00,
2013-04-03 04:40:00,48.0,48.0,29.71,SSW,207,0.0,0.0,100,0.00,,,0.00,VWS V14.01,2013-04-03 11:40:00,
2013-04-03 04:50:00,48.2,48.2,29.71,SSW,207,0.0,0.0,100,0.00,,,0.00,VWS V14.01,2013-04-03 11:50:00,
2013-04-03 05:00:00,47.8,47.8,29.71,SSW,204,0.0,3.1,100,0.00,,,0.00,VWS V14.01,2013-04-03 12:00:00,
2013-04-03 05:10:00,47.8,47.8,29.71,SSW,205,0.0,0.0,100,0.00,,,0.00,VWS V14.01,2013-04-03 12:10:00,
2013-04-03 05:20:00,47.7,47.7,29.71,WSW,237,3.1,3.1,100,0.00,,,0.00,VWS V14.01,2013-04-03 12:20:00,
2013-04-03 05:30:00,47.7,47.7,29.71,SW,219,0.0,3.6,100,0.00,,,0.00,VWS V14.01,2013-04-03 12:30:00,
2013-04-03 05:40:00,47.7,47.7,29.71,SSW,212,0.0,3.6,100,0.00,,,0.00,VWS V14.01,2013-04-03 12:40:00,
2013-04-03 05:50:00,47.8,47.8,29.71,SSW,212,0.0,0.0,100,0.00,,,0.00,VWS V14.01,2013-04-03 12:50:00,
2013-04-03 06:00:00,48.0,48.0,29.68,SSW,212,0.0,0.0,100,0.00,,,0.00,VWS V14.01,2013-04-03 13:00:00,
2013-04-03 06:10:00,48.0,48.0,29.68,SSW,212,0.0,0.0,100,0.00,,,0.00,VWS V14.01,2013-04-03 13:10:00,
2013-04-03 06:20:00,48.2,48.2,29.71,SSW,212,0.0,0.0,100,0.00,,,0.00,VWS V14.01,2013-04-03 13:20:00,
2013-04-03 06:30:00,48.0,48.0,29.71,SSW,212,0.0,0.0,100,0.00,,,0.00,VWS V14.01,2013-04-03 13:30:00,
2013-04-03 06:40:00,48.0,48.0,29.71,SSW,212,0.0,0.0,100,0.00,,,0.00,VWS V14.01,2013-04-03 13:40:00,
2013-04-03 06:50:00,47.8,47.8,29.71,SSW,212,0.0,0.0,100,0.00,,,0.00,VWS V14.01,2013-04-03 13:50:00,
2013-04-03 07:00:00,47.8,47.8,29.71,SSW,212,0.0,0.0,100,0.00,,,0.00,VWS V14.01,2013-04-03 14:00:00,
2013-04-03 07:10:00,47.7,47.7,29.71,SW,215,0.0,0.0,100,0.00,,,0.00,VWS V14.01,2013-04-03 14:10:00,
2013-04-03 07:20:00,47.5,47.5,29.71,WSW,245,0.0,0.0,100,0.00,,,0.00,VWS V14.01,2013-04-03 14:20:00,
2013-04-03 07:30:00,47.3,47.3,29.71,WSW,246,0.0,2.2,100,0.00,,,0.00,VWS V14.01,2013-04-03 14:30:00,
2013-04-03 07:40:00,47.3,47.3,29.71,WSW,241,0.0,0.0,100,0.00,,,0.00,VWS V14.01,2013-04-03 14:40:00,
2013-04-03 07:50:00,47.7,47.7,29.71,WSW,241,0.0,0.0,100,0.00,,,0.00,VWS V14.01,2013-04-03 14:50:00,
2013-04-03 08:00:00,47.8,47.8,29.74,WSW,241,0.0,0.0,100,0.00,,,0.00,VWS V14.01,2013-04-03 15:00:00,
2013-04-03 08:10:00,48.0,48.0,29.74,WSW,238,0.0,0.0,100,0.00,,,0.00,VWS V14.01,2013-04-03 15:10:00,
2013-04-03 08:20:00,48.4,48.4,29.71,WSW,238,0.0,0.0,100,0.00,,,0.00,VWS V14.01,2013-04-03 15:20:00,
2013-04-03 08:30:00,48.6,48.6,29.74,West,265,0.0,0.0,100,0.00,,,0.00,VWS V14.01,2013-04-03 15:30:00,
2013-04-03 08:40:00,48.7,48.7,29.74,West,265,0.0,0.0,100,0.00,,,0.00,VWS V14.01,2013-04-03 15:40:00,
2013-04-03 08:50:00,48.9,48.9,29.74,West,265,0.0,0.0,100,0.00,,,0.00,VWS V14.01,2013-04-03 15:50:00,
2013-04-03 09:00:00,49.1,49.1,29.74,West,262,0.0,0.0,100,0.00,,,0.00,VWS V14.01,2013-04-03 16:00:00,
2013-04-03 09:10:00,49.5,49.5,29.74,West,262,0.0,0.0,100,0.00,,,0.00,VWS V14.01,2013-04-03 16:10:00,
2013-04-03 09:20:00,50.4,50.4,29.71,SW,214,0.0,2.7,100,0.00,,,0.00,VWS V14.01,2013-04-03 16:20:00,
2013-04-03 09:30:00,50.4,50.4,29.74,SW,214,0.0,0.0,100,0.00,,,0.00,VWS V14.01,2013-04-03 16:30:00,
2013-04-03 09:40:00,50.4,50.4,29.74,SW,215,0.0,0.0,100,0.00,,,0.00,VWS V14.01,2013-04-03 16:40:00,
2013-04-03 09:50:00,50.9,50.9,29.74,SSW,208,0.0,3.6,100,0.00,,,0.00,VWS V14.01,2013-04-03 16:50:00,
2013-04-03 10:00:00,51.4,51.4,29.74,West,277,3.6,4.0,100,0.00,,,0.00,VWS V14.01,2013-04-03 17:00:00,
2013-04-03 10:10:00,51.6,51.6,29.74,SW,221,0.0,3.6,100,0.00,,,0.00,VWS V14.01,2013-04-03 17:10:00,
2013-04-03 10:20:00,52.2,52.2,29.74,SSW,197,0.0,4.9,100,0.00,,,0.00,VWS V14.01,2013-04-03 17:20:00,
2013-04-03 10:30:00,52.2,52.2,29.74,WNW,290,0.0,2.7,100,0.00,,,0.00,VWS V14.01,2013-04-03 17:30:00,
2013-04-03 10:40:00,53.2,53.2,29.74,SW,223,0.0,3.1,100,0.00,,,0.00,VWS V14.01,2013-04-03 17:40:00,
2013-04-03 10:50:00,54.3,54.3,29.74,SSW,203,3.1,4.5,100,0.00,,,0.00,VWS V14.01,2013-04-03 17:50:00,
2013-04-03 11:00:00,55.2,55.0,29.71,SW,232,0.0,3.1,99,0.00,,,0.00,VWS V14.01,2013-04-03 18:00:00,
2013-04-03 11:10:00,57.2,56.1,29.71,SSW,194,3.6,3.6,96,0.00,,,0.00,VWS V14.01,2013-04-03 18:10:00,
2013-04-03 11:20:00,57.9,55.3,29.71,NW,304,2.2,4.0,91,0.00,,,0.00,VWS V14.01,2013-04-03 18:20:00,
2013-04-03 11:30:00,58.3,54.1,29.71,West,277,0.0,4.0,86,0.00,,,0.00,VWS V14.01,2013-04-03 18:30:00,
2013-04-03 11:50:00,59.7,54.6,29.71,SW,233,0.0,5.8,83,0.00,,,0.00,VWS V14.01,2013-04-03 18:50:00,
2013-04-03 12:00:00,61.0,54.8,29.71,WNW,289,0.0,4.9,80,0.00,,,0.00,VWS V14.01,2013-04-03 19:00:00,
2013-04-03 12:10:00,61.7,53.7,29.71,WSW,237,0.0,2.7,75,0.00,,,0.00,VWS V14.01,2013-04-03 19:10:00,
2013-04-03 12:20:00,62.6,54.2,29.68,WSW,257,3.1,4.0,74,0.00,,,0.00,VWS V14.01,2013-04-03 19:20:00,
2013-04-03 12:30:00,63.3,54.2,29.68,West,279,0.0,3.6,72,0.00,,,0.00,VWS V14.01,2013-04-03 19:30:00,
2013-04-03 12:40:00,63.5,53.9,29.68,WSW,240,0.0,4.0,71,0.00,,,0.00,VWS V14.01,2013-04-03 19:40:00,
2013-04-03 12:50:00,64.0,54.8,29.68,SW,234,0.0,0.0,72,0.00,,BKN250,0.00,VWS V14.01,2013-04-03 19:50:00,
2013-04-03 13:00:00,65.1,56.3,29.68,WSW,256,0.0,2.2,73,0.00,,BKN250,0.00,VWS V14.01,2013-04-03 20:00:00,
2013-04-03 13:10:00,65.7,54.0,29.68,NE,37,0.0,3.6,66,0.00,,BKN250,0.00,VWS V14.01,2013-04-03 20:10:00,
2013-04-03 13:20:00,66.2,54.5,29.65,WNW,283,0.0,4.0,66,0.00,,BKN250,0.00,VWS V14.01,2013-04-03 20:20:00,
2013-04-03 13:30:00,66.9,55.2,29.65,WNW,295,0.0,4.0,66,0.00,,BKN250,0.00,VWS V14.01,2013-04-03 20:30:00,
2013-04-03 13:40:00,67.5,55.7,29.65,WNW,291,4.0,4.0,66,0.00,,BKN250,0.00,VWS V14.01,2013-04-03 20:40:00,
2013-04-03 13:50:00,68.0,56.7,29.65,NE,52,0.0,4.0,67,0.00,,BKN250,0.00,VWS V14.01,2013-04-03 20:50:00,
2013-04-03 14:00:00,68.5,55.5,29.65,NW,316,3.1,5.4,63,0.00,,BKN250,0.00,VWS V14.01,2013-04-03 21:00:00,
2013-04-03 14:10:00,69.6,56.0,29.65,WNW,301,2.7,6.3,62,0.00,,BKN250,0.00,VWS V14.01,2013-04-03 21:10:00,
2013-04-03 14:20:00,70.3,53.9,29.62,NW,307,2.2,5.8,56,0.00,,BKN250,0.00,VWS V14.01,2013-04-03 21:20:00,
2013-04-03 14:30:00,70.3,53.9,29.62,ENE,70,0.0,4.0,56,0.00,,BKN250,0.00,VWS V14.01,2013-04-03 21:30:00,
2013-04-03 14:40:00,70.9,54.9,29.62,NNE,29,0.0,5.4,57,0.00,,BKN250,0.00,VWS V14.01,2013-04-03 21:40:00,
2013-04-03 14:50:00,71.6,56.1,29.62,NNW,331,0.0,5.4,58,0.00,,BKN250,0.00,VWS V14.01,2013-04-03 21:50:00,
2013-04-03 15:00:00,71.8,54.8,29.62,North,0,0.0,4.9,55,0.00,,BKN250,0.00,VWS V14.01,2013-04-03 22:00:00,
2013-04-03 15:10:00,71.8,53.2,29.62,NNW,332,4.0,5.4,52,0.00,,BKN250,0.00,VWS V14.01,2013-04-03 22:10:00,
2013-04-03 15:20:00,71.6,53.6,29.62,North,0,0.0,6.3,53,0.00,,BKN250,0.00,VWS V14.01,2013-04-03 22:20:00,
2013-04-03 15:30:00,71.6,56.5,29.62,SE,132,0.0,4.5,59,0.00,,BKN250,0.00,VWS V14.01,2013-04-03 22:30:00,
2013-04-03 15:40:00,71.4,57.3,29.62,NNE,16,0.0,7.2,61,0.00,,BKN250,0.00,VWS V14.01,2013-04-03 22:40:00,
2013-04-03 15:50:00,70.9,57.2,29.62,NNW,344,2.7,4.0,62,0.00,,CLR,0.00,VWS V14.01,2013-04-03 22:50:00,
2013-04-03 16:00:00,70.0,57.3,29.62,NNE,25,0.0,4.0,64,0.00,,CLR,0.00,VWS V14.01,2013-04-03 23:00:00,
2013-04-03 16:10:00,68.0,56.2,29.62,South,191,0.0,5.8,66,0.00,,CLR,0.00,VWS V14.01,2013-04-03 23:10:00,
2013-04-03 16:20:00,66.6,56.1,29.59,NNE,29,0.0,2.7,69,0.00,,CLR,0.00,VWS V14.01,2013-04-03 23:20:00,
2013-04-03 16:30:00,65.5,55.8,29.59,NNE,25,0.0,4.9,71,0.00,,CLR,0.00,VWS V14.01,2013-04-03 23:30:00,
2013-04-03 16:40:00,65.1,56.3,29.59,NNW,335,0.0,3.1,73,0.00,,CLR,0.00,VWS V14.01,2013-04-03 23:40:00,
2013-04-03 16:50:00,65.5,56.2,29.59,SW,235,2.7,4.9,72,0.00,,SCT250,0.00,VWS V14.01,2013-04-03 23:50:00,
2013-04-03 17:00:00,64.9,56.1,29.59,NE,44,0.0,3.6,73,0.00,,SCT250,0.00,VWS V14.01,2013-04-04 00:00:00,
2013-04-03 17:10:00,64.2,55.8,29.59,West,281,0.0,3.1,74,0.00,,SCT250,0.00,VWS V14.01,2013-04-04 00:10:00,
2013-04-03 17:20:00,64.0,55.6,29.59,South,177,0.0,3.1,74,0.00,,BKN250,0.00,VWS V14.01,2013-04-04 00:20:00,
2013-04-03 17:30:00,64.0,56.0,29.59,SE,128,0.0,2.7,75,0.00,,BKN250,0.00,VWS V14.01,2013-04-04 00:30:00,
2013-04-03 17:40:00,63.9,55.0,29.59,NNE,19,0.0,0.0,73,0.00,,BKN250,0.00,VWS V14.01,2013-04-04 00:40:00,
2013-04-03 17:50:00,63.1,54.0,29.59,NW,322,0.0,2.7,72,0.00,,BKN250,0.00,VWS V14.01,2013-04-04 00:50:00,
2013-04-03 18:00:00,62.2,53.9,29.59,SW,220,0.0,2.7,74,0.00,,BKN250,0.00,VWS V14.01,2013-04-04 01:00:00,
2013-04-03 18:10:00,61.3,53.4,29.59,ENE,68,0.0,3.1,75,0.00,,BKN250,0.00,VWS V14.01,2013-04-04 01:10:00,
2013-04-03 18:20:00,61.0,53.0,29.59,North,353,0.0,0.0,75,0.00,,BKN250,0.00,VWS V14.01,2013-04-04 01:20:00,
2013-04-03 18:30:00,60.6,53.0,29.59,WSW,250,0.0,3.1,76,0.00,,BKN250,0.00,VWS V14.01,2013-04-04 01:30:00,
2013-04-03 18:40:00,59.7,52.2,29.59,SSW,202,0.0,2.7,76,0.00,,BKN250,0.00,VWS V14.01,2013-04-04 01:40:00,
2013-04-03 18:50:00,58.6,51.5,29.59,West,279,2.2,3.6,77,0.00,,CLR,0.00,VWS V14.01,2013-04-04 01:50:00,
2013-04-03 19:00:00,57.6,51.1,29.59,South,178,0.0,3.6,79,0.00,,CLR,0.00,VWS V14.01,2013-04-04 02:00:00,
2013-04-03 19:10:00,56.8,51.1,29.59,WNW,288,0.0,0.0,81,0.00,,CLR,0.00,VWS V14.01,2013-04-04 02:10:00,
2013-04-03 19:20:00,55.8,50.7,29.59,NNW,345,0.0,2.2,83,0.00,,CLR,0.00,VWS V14.01,2013-04-04 02:20:00,
2013-04-03 19:30:00,54.9,50.8,29.59,NNW,345,0.0,0.0,86,0.00,,CLR,0.00,VWS V14.01,2013-04-04 02:30:00,
2013-04-03 23:10:00,50.4,49.8,29.62,WSW,241,0.0,0.0,98,0.00,,CLR,0.00,VWS V14.01,2013-04-04 06:10:00,
2013-04-03 23:20:00,49.8,49.3,29.62,North,353,0.0,0.0,98,0.00,,CLR,0.00,VWS V14.01,2013-04-04 06:20:00,
2013-04-03 23:30:00,49.8,49.3,29.62,NNW,346,0.0,0.0,98,0.00,,CLR,0.00,VWS V14.01,2013-04-04 06:30:00,
2013-04-03 23:40:00,49.8,49.5,29.62,NNW,346,0.0,0.0,99,0.00,,BKN004,0.00,VWS V14.01,2013-04-04 06:40:00,
2013-04-03 23:50:00,49.8,49.5,29.62,NNW,346,0.0,0.0,99,0.00,,BKN004,0.00,VWS V14.01,2013-04-04 06:50:00,